SCP
2 2 3 3 3 3 4 4 4 3 3 2 2 2 2 1 1 1 1 1 1 1 1 1 0 0 0 0 0 0 0 0 0 0 0 0 0 0 0 0 1 1 1
2 2 3 3 4 4 4 4 3 3 2 2 2 2 2 1 1 1 1 1 1 1 1 1 0 0 0 0 0 0 0 0 0 0 0 0 0 0 1 0 1 1 1
3 3 3 4 4 5 4 4 3 3 2 2 2 2 2 2 1 1 1 1 1 1 1 1 0 0 0 0 0 0 0 0 0 0 0 0 0 0 0 0 0 1 1
4 3 3 4 5 5 4 4 3 3 3 2 2 2 2 2 1 1 1 1 1 1 1 1 1 0 0 0 0 0 0 1 1 1 0 0 0 0 0 0 0 0 1
4 4 4 5 5 5 4 4 3 3 3 3 3 2 2 2 2 2 2 1 1 1 1 1 1 1 0 0 0 0 0 0 1 1 1 0 0 0 0 0 0 0 0
4 4 5 6 7 6 5 5 4 4 4 3 3 2 3 3 2 2 2 1 1 1 1 1 1 1 0 0 0 0 0 0 1 1 1 1 1 0 0 0 0 0 0
4 5 5 7 8 8 6 6 5 5 5 4 3 3 3 3 2 2 1 1 1 1 1 1 1 1 1 0 0 0 0 1 1 1 1 1 1 1 1 0 0 0 0
4 5 6 7 8 7 6 6 6 5 4 4 4 4 3 3 2 2 1 1 1 1 1 1 1 1 1 1 1 1 1 1 1 1 1 1 1 1 1 1 1 1 0
3 4 6 7 7 6 5 5 5 4 4 4 4 4 3 2 2 1 1 1 1 1 1 1 1 1 1 1 1 1 1 1 1 1 1 1 1 1 1 1 1 1 1
3 4 6 6 5 4 4 4 4 4 4 4 4 4 3 2 2 2 2 2 2 1 1 2 1 1 1 1 1 1 1 1 1 1 1 1 1 1 1 1 2 2 2
4 5 5 5 4 4 4 4 4 4 4 4 4 4 4 3 2 2 2 2 2 2 2 2 2 1 1 1 2 2 2 1 1 1 1 1 1 1 1 1 2 2 2
5 5 5 4 3 4 5 5 4 4 4 4 5 5 4 3 2 2 2 2 2 2 2 2 2 2 1 1 1 1 1 1 1 1 1 1 1 1 1 1 1 1 1
6 5 4 3 3 5 6 5 4 4 4 5 6 5 4 3 2 2 2 2 2 1 1 2 2 2 1 1 1 1 1 1 1 1 1 1 1 1 1 1 1 1 1
6 5 3 3 4 6 6 6 5 4 5 6 6 5 4 3 3 3 3 3 2 2 2 2 2 2 1 2 2 2 2 1 1 1 1 1 1 1 1 1 1 1 1
5 4 4 5 6 7 7 6 5 5 6 7 7 6 5 5 5 4 4 4 4 3 3 2 2 2 2 2 2 2 2 2 1 1 1 1 1 1 1 1 1 1 1
4 5 6 7 8 8 7 6 6 6 7 7 7 6 6 7 7 6 6 6 6 5 5 4 3 3 2 2 2 3 3 3 2 2 1 1 1 1 1 1 1 1 1
4 5 7 8 7 7 6 7 7 7 7 7 7 7 7 8 8 8 8 8 9 8 8 7 5 4 3 2 2 2 3 3 3 2 1 1 1 1 1 1 1 1 1
4 5 6 6 6 6 7 9 10 9 8 7 7 7 7 7 7 8 9 10 10 11 10 9 8 6 5 3 2 2 2 3 3 2 2 1 1 1 1 1 1 1 1
5 5 5 5 6 7 8 10 11 10 8 7 7 6 7 7 7 7 8 9 10 11 11 11 10 9 6 3 2 1 2 2 2 2 2 2 1 1 1 1 1 0 0
6 5 5 6 7 8 8 9 9 8 7 6 6 6 7 7 7 7 7 8 9 10 10 11 11 10 7 4 2 1 2 2 2 2 2 2 1 1 1 1 1 1 1
6 6 6 7 8 9 9 8 6 5 5 5 6 7 7 8 7 7 7 7 8 9 10 11 11 11 8 5 2 1 2 3 3 2 2 1 1 1 0 0 1 1 1
6 6 6 8 10 11 10 7 6 5 4 4 6 8 9 9 8 8 7 7 8 9 10 11 12 11 9 6 3 1 1 2 3 3 2 2 1 1 0 0 1 1 1
5 5 6 9 12 11 9 7 6 4 3 3 5 7 9 9 9 9 9 8 9 10 10 11 11 11 10 9 6 3 1 1 2 3 2 2 1 1 1 1 1 1 2
3 3 5 8 10 9 8 7 6 4 3 3 4 5 6 7 8 9 9 8 8 9 10 11 11 11 11 12 11 8 3 1 2 2 2 1 1 1 1 2 2 2 3
2 2 3 4 5 6 6 6 5 4 3 3 3 4 5 6 7 8 7 6 6 7 9 9 10 9 10 11 12 10 5 2 1 2 2 2 1 1 2 2 3 3 3
2 2 2 2 3 4 5 5 5 4 4 3 3 3 5 7 7 7 6 5 5 6 6 7 8 8 8 9 9 7 4 2 1 2 3 3 2 2 2 3 3 3 3
Wind_Speed
7 8 9 10 8 7 7 7 6 6 5 3 3 3 2 1 1 1 2 2 2 2 2 2 2 2 2 1 1 1 2 1 1 2 2 2 1 1 2 2 2 2 3
6 7 8 8 9 9 8 7 7 7 6 4 3 3 3 2 2 1 1 2 2 2 3 2 2 2 2 2 2 1 1 1 1 2 1 2 3 2 1 1 1 2 2
9 8 8 8 8 8 9 8 7 7 6 5 3 3 2 2 1 1 1 1 1 2 2 2 2 2 2 1 1 1 2 1 1 1 2 2 1 2 2 1 0 1 1
8 8 8 9 9 9 8 7 7 7 6 6 5 5 4 3 3 2 2 2 2 2 2 2 2 2 1 1 0 1 1 2 1 1 1 1 2 1 1 3 2 1 1
10 9 9 10 9 8 7 6 6 6 6 6 6 6 4 3 2 2 2 2 1 2 2 2 2 2 1 1 1 1 1 1 1 0 0 1 1 1 1 1 3 2 1
8 8 8 7 6 6 6 6 6 5 6 6 6 6 6 5 4 3 3 2 1 1 1 2 2 2 1 1 1 1 2 1 1 1 1 1 1 1 1 1 2 2 2
6 7 7 7 7 7 7 6 7 6 6 6 6 6 6 6 6 5 4 3 1 1 1 1 1 1 1 1 1 1 1 1 1 1 0 0 1 1 1 1 1 1 2
7 7 8 8 8 8 8 7 7 6 6 7 6 5 5 5 4 4 4 4 3 2 2 2 1 1 1 1 1 1 0 1 0 1 0 0 1 0 1 2 2 1 2
6 6 6 6 6 7 7 7 7 7 7 7 6 5 5 5 5 4 4 3 2 2 2 2 1 1 1 1 1 1 0 0 0 0 0 0 1 1 1 1 2 2 2
6 5 6 6 5 6 6 6 7 8 7 7 6 6 5 5 5 5 4 4 3 3 3 2 2 1 1 1 1 1 0 0 1 0 0 1 1 1 1 0 1 2 3
7 7 7 6 6 5 5 6 6 5 6 6 6 5 4 4 4 4 4 4 3 3 3 3 3 2 1 1 1 1 1 0 1 1 0 1 1 1 1 0 0 1 2
6 6 6 6 5 5 5 6 6 6 6 6 6 5 5 4 4 3 3 4 3 3 3 3 3 3 2 1 2 1 1 1 1 2 1 2 1 1 1 1 1 1 2
4 5 5 5 5 5 5 5 6 6 5 5 6 5 5 5 4 4 3 3 3 2 2 3 3 3 2 2 2 2 2 1 2 2 1 2 1 2 1 1 1 2 1
4 5 4 4 4 5 5 5 5 6 6 6 6 5 5 5 5 4 4 3 3 3 2 2 2 2 3 2 2 2 2 1 1 1 1 1 1 2 2 2 2 2 1
5 4 4 4 4 4 4 5 5 5 6 6 5 5 5 4 4 4 4 3 3 3 3 2 1 2 2 2 2 2 2 2 1 1 1 2 2 2 2 1 2 2 2
4 3 3 4 4 4 4 4 4 5 6 6 5 4 4 4 4 4 4 3 3 3 3 3 2 2 2 3 4 3 3 2 2 2 2 2 2 3 3 2 2 3 3
4 3 3 3 3 3 3 4 4 4 5 5 4 4 4 4 4 4 3 4 4 3 3 3 3 3 3 3 3 4 3 3 2 2 2 2 2 2 2 3 3 3 3
4 3 2 2 1 1 3 3 4 4 4 4 3 4 4 4 4 3 3 3 3 3 3 3 3 3 3 3 3 2 2 2 2 3 3 2 2 2 1 2 2 2 3
4 3 3 3 3 3 3 4 4 3 3 3 4 4 5 4 4 4 4 3 2 2 2 2 2 3 2 2 3 2 1 1 2 2 2 2 2 3 1 0 1 3 3
4 3 2 3 3 2 3 4 3 3 2 3 3 4 4 4 4 4 4 2 2 2 2 1 2 3 2 2 3 3 2 1 2 2 2 3 3 3 2 2 2 3 4
4 3 3 2 2 2 4 3 2 2 2 1 1 2 3 4 4 3 3 2 2 2 2 2 2 2 3 3 3 3 2 2 2 2 3 3 5 4 4 4 4 6 5
4 3 3 1 1 2 4 3 1 2 1 1 1 1 2 2 2 2 2 2 3 3 2 2 2 2 2 3 3 4 4 3 3 3 3 4 6 6 5 4 5 6 3
2 2 3 2 0 1 3 3 2 1 1 1 0 1 1 1 2 3 3 2 3 2 2 3 3 3 2 3 4 4 4 4 3 3 5 6 6 5 4 5 5 2 1
2 2 2 2 0 0 1 1 1 1 2 1 0 1 1 1 1 2 2 3 3 3 3 3 3 2 2 2 2 2 2 3 3 3 4 5 4 3 3 3 2 1 2
2 2 2 1 1 1 0 0 1 2 1 1 1 1 1 1 1 1 1 2 3 4 4 4 4 4 3 5 5 3 3 3 3 1 1 1 1 1 2 2 2 1 1
1 1 1 1 2 1 1 1 1 2 2 1 1 1 1 1 1 1 1 3 2 4 5 5 5 4 5 5 4 4 4 4 3 2 1 2 2 2 2 2 2 2 2
Wind_Direction
182 172 166 160 157 156 156 158 155 161 153 147 145 135 138 147 143 159 154 144 138 126 112 94 68 75 88 86 69 73 55 28 56 65 26 1 332 204 218 208 203 209 209
172 171 167 165 165 165 164 164 166 166 164 165 159 149 143 145 152 157 135 137 130 129 122 114 103 93 85 62 52 66 66 11 48 104 87 10 349 335 282 209 204 210 204
179 175 171 170 170 171 174 174 173 168 167 154 134 121 96 80 87 113 141 150 143 122 111 119 116 109 107 96 52 69 102 81 1 77 128 135 235 310 334 322 265 209 201
177 175 174 172 176 182 179 173 171 166 165 155 151 153 154 165 185 169 156 152 155 142 130 128 120 117 111 106 62 88 104 103 29 345 38 155 164 156 323 333 326 293 238
176 172 178 178 179 180 176 174 166 166 164 160 160 159 159 163 147 132 136 149 158 149 144 132 118 113 113 107 70 62 73 97 111 65 10 30 39 101 148 289 317 333 305
172 175 179 167 172 175 171 168 161 170 170 165 164 163 163 158 146 148 156 164 151 133 148 127 126 126 125 129 119 92 82 78 78 71 76 115 133 186 162 214 271 295 295
167 177 176 170 173 175 178 176 171 174 173 167 170 167 165 159 163 166 167 163 159 166 186 153 145 150 149 142 122 89 76 77 75 80 95 127 204 177 161 168 250 280 293
178 180 183 179 178 178 176 177 171 171 173 168 167 162 157 159 162 163 161 168 174 180 175 158 156 163 158 147 131 109 125 90 80 50 66 322 291 177 171 177 176 282 310
170 176 176 171 173 174 176 172 165 167 172 166 154 150 158 156 158 159 157 167 174 171 168 159 140 135 148 153 139 133 231 80 118 256 322 301 307 318 255 186 174 177 238
156 163 168 171 179 172 166 165 165 171 168 164 165 163 165 164 161 159 165 173 177 174 166 162 157 148 140 151 148 151 202 123 285 258 21 312 299 323 321 254 211 177 188
167 169 170 178 177 163 157 157 160 157 159 165 164 163 165 166 163 167 176 179 178 174 172 174 169 168 180 180 163 180 151 147 301 301 277 276 277 308 303 290 226 190 173
166 164 160 164 166 163 164 163 160 160 166 163 158 167 160 156 160 176 181 173 177 180 177 174 175 184 190 199 196 209 196 192 247 272 272 275 291 314 302 282 251 236 205
142 136 139 149 155 155 156 162 163 162 157 154 160 165 165 164 169 177 187 174 172 176 177 173 183 194 195 195 197 189 194 205 227 247 258 277 261 275 267 244 240 244 247
123 119 121 135 147 153 160 166 163 157 154 156 160 168 177 177 179 176 181 182 175 171 179 183 185 191 188 180 185 182 183 191 226 240 236 246 236 249 256 239 221 217 229
117 126 128 132 145 156 162 157 155 157 157 156 161 175 178 174 173 173 174 184 182 174 173 172 176 182 187 191 185 189 179 174 222 276 267 257 268 290 269 250 220 202 206
123 131 133 133 142 154 158 151 155 163 158 160 172 175 168 168 175 180 177 181 185 184 178 188 193 200 211 200 193 179 182 188 202 238 272 277 292 314 316 284 234 205 203
135 145 150 148 149 148 146 159 162 149 149 158 165 165 167 173 183 186 182 190 196 193 199 204 197 211 227 202 187 185 180 194 213 231 251 274 300 314 306 300 292 275 247
134 136 124 104 83 95 112 118 120 129 138 146 159 171 176 185 188 184 192 205 199 197 204 206 205 206 223 207 191 182 190 209 226 232 228 234 261 281 315 320 324 303 280
130 132 135 126 108 99 102 106 113 122 135 158 179 189 187 188 189 195 202 206 195 200 207 203 196 189 220 204 185 163 182 217 250 247 239 236 243 276 326 357 306 309 301
113 116 114 105 109 117 112 109 117 128 155 187 197 198 194 191 197 200 202 199 186 195 188 201 200 189 210 204 183 176 181 213 256 269 260 257 253 262 262 220 232 262 271
108 107 106 114 149 143 123 124 130 169 211 210 193 205 204 200 201 194 187 176 170 164 171 189 209 204 209 209 197 184 180 202 231 253 272 273 272 267 267 250 227 234 244
90 100 104 108 162 137 128 134 192 234 218 173 198 219 214 207 189 173 174 171 169 171 192 197 219 234 225 219 216 206 207 207 208 239 255 270 277 272 270 256 253 255 249
108 102 119 109 60 136 142 163 229 234 135 108 197 224 213 202 185 179 180 179 177 179 201 201 214 237 240 237 229 221 224 231 224 238 257 276 287 286 277 276 281 275 208
117 102 102 105 82 323 138 183 212 153 123 134 271 237 195 207 204 194 185 184 190 194 206 208 216 231 240 237 235 237 237 242 248 262 277 287 293 299 291 301 296 251 211
148 126 129 165 219 220 187 192 194 147 139 180 230 220 199 195 194 216 218 209 212 202 200 211 205 204 229 239 227 213 219 221 225 231 325 332 319 309 301 295 288 268 241
146 133 153 205 231 220 264 263 211 165 165 198 242 234 210 209 195 190 317 310 261 230 217 214 207 222 228 228 230 237 236 228 192 154 208 246 254 251 246 257 271 263 245